www.pogodaiklimat.ru

Погода и климат >> Архив погоды >> Канада >> Toronto


АРХИВ ПОГОДЫ в Toronto

Время (UTC), дата Ветер
(напр.,м/с)
 
Видим.   Явления Облачность Т
(С)
Тd
(С)
f
(%)
Тe
(С)
Тes
(С)
Комфортность P
(гПа)
Po
(гПа)
Тmin
(С)
Tmax
(С)
R
(мм)
S
(см)
21 14.02 З 6 24 км 10/10 1000 м
[]
+3.2 -1.9 69 -2 -2 тепло 1001.7 980.5
00 15.02 Ю 3 24 км 9/9 1000 м
[Sc]
+3.7 -1.1 71 0 0 тепло 1001.6 980.5 -7.4 +4.4
03 15.02 З 6 24 км 9/9 300 м
[]
+2.4 -0.2 83 -3 -3 тепло 999.9 978.8
06 15.02 З 4 24 км {ливн. осадки, дождь} 10/3 600 м
[Sc Ac As]
+1.2 -0.7 87 -4 -4 тепло 998.5 977.5 -7.4 +4.4 0.0 201
09 15.02 СЗ 5 24 км 6/6 600 м
[]
-0.7 -4.1 78 -7 -7 по сезону 997.8 976.8
12 15.02 З 4 24 км 9/4 1000 м
[Sc Ac As]
-0.4 -4.1 76 -6 -6 тепло 998.2 977.2 -1.2 +4.4 2
15 15.02 З 5 24 км 9/9 600 м
[]
+0.2 -4.5 71 -6 -5 по сезону 998.7 977.7
18 15.02 С 7 12 км осадки на расстоянии {снег} 9/9 600 м
[Sc]
+0.2 -4.3 72 -7 -6 по сезону 999.7 978.6 -1.5 +1.7 0.0 2
21 15.02 СЗ 9 24 км 10/10 600 м
[]
-2.0 -7.5 66 -10 -10 по сезону 1001.4 980.2
00 16.02 СЗ 8 24 км 10/10 600 м
[Sc]
-4.1 -9.2 68 -12 -12 по сезону 1004.1 982.8 -4.1 +0.8
03 16.02 СЗ 8 24 км 10/0
[]
-5.1 -10.5 66 -14 -14 прохладно 1005.0 983.7
06 16.02 СЗ 7 24 км 9/1 600 м
[Sc Ac As]
-6.1 -10.7 70 -15 -15 прохладно 1005.5 984.1 -6.1 +1.7 231
09 16.02 СЗ 9 24 км 9/9 600 м
[]
-7.8 -12.2 71 -17 -17 прохладно 1006.5 985.0
12 16.02 СЗ 6 24 км 9/4 300 м
[Cu Sc Ac As]
-9.6 -13.1 76 -18 -18 прохладно 1008.6 987.0 -9.7 +1.7 2
15 16.02 СЗ 8 24 км ясно -8.1 -13.4 66 -17 -16 холодно 1010.4 988.8
18 16.02 С 6 24 км 1/1 600 м
[Cu hum]
-4.4 -12.4 54 -12 -9 прохладно 1010.7 989.1 -9.7 -4.2
21 16.02 СЗ 7 24 км 1/1 1000 м
[]
-3.7 -11.5 55 -11 -11 по сезону 1011.5 989.9
00 17.02 З 6 24 км 1/0
[Ci fib]
-6.5 -11.9 65 -14 -14 прохладно 1013.3 991.5 -9.7 -3.3
03 17.02 СЗ 3 24 км н/о -7.5 -12.1 70 -13 -13 по сезону 1014.2 992.4
06 17.02 СЗ 3 24 км 9/9 300 м
[Sc]
-6.7 -11.1 71 -12 -12 по сезону 1014.6 992.9 -9.7 -3.3 91
09 17.02 СЗ 3 24 км 9/9 300 м
[]
-6.2 -10.6 71 -12 -12 по сезону 1014.3 992.7
12 17.02 С 1 24 км 8/1 600 м
[Sc Ac As]
-6.1 -10.7 70 -7 -7 по сезону 1013.7 992.0 -7.8 -3.3 2
15 17.02 ЮВ 2 24 км 4/0
[]
-3.9 -9.8 64 -8 -4 по сезону 1014.1 992.4
18 17.02 ЮВ 2 24 км 8/0
[Ci sp]
-1.1 -8.1 59 -4 +1 по сезону 1012.3 990.8 -7.8 -1.1
21 17.02 ЮВ 3 24 км 9/0
[]
-0.3 -6.3 64 -4 -3 по сезону 1011.3 989.8
00 18.02 ЮВ 3 24 км 9/0
[Ac As Ci sp]
-1.2 -6.0 70 -6 -6 по сезону 1010.2 988.7 -6.7 0.0
03 18.02 ЮВ 3 24 км 9/0
[]
+0.1 -2.9 80 -5 -5 по сезону 1008.7 987.3
06 18.02 С 1 24 км 6/0
[Ac trans Ci fib]
-1.1 -3.5 84 -2 -2 тепло 1006.6 985.3 -6.7 +0.3
09 18.02 СЗ 1 24 км 3/0
[]
-2.4 -4.4 86 -5 -5 тепло 1004.1 982.8
12 18.02 Ю 2 19 км 3/0
[Ci fib]
-0.7 -3.6 81 -4 -4 тепло 1002.4 981.2 -3.5 +0.3 2
15 18.02 З 4 24 км 3/0
[]
+6.3 +0.6 67 +3 +5 тепло 1001.4 980.4
18 18.02 З 8 24 км 1/0
[Ci fib]
+11.5 +2.3 53 +8 +9 тепло 1000.7 979.8 -3.5 +11.6
21 18.02 З 12 24 км ясно +11.6 +2.9 55 +8 +8 тепло 1001.2 980.2
00 19.02 З 6 24 км ясно +7.8 +2.1 67 +4 +4 тепло 1003.9 982.8 -3.5 +11.9
03 19.02 СЗ 5 24 км ясно +6.6 +1.7 71 +3 +3 тепло 1004.9 983.9
06 19.02 З 4 24 км 3/0
[Ci fib]
+4.0 +0.9 80 -0 -0 тепло 1006.0 985.1 -3.5 +11.9 212
09 19.02 З 5 24 км 8/0
[]
+4.3 +0.5 76 -1 -1 тепло 1008.0 987.0
12 19.02 З 5 24 км 5/0
[Ac As]
+3.5 -0.2 77 -1 -1 тепло 1010.3 989.2 +2.1 +11.9
15 19.02 З 7 24 км 3/0
[]
+8.5 +1.7 62 +5 +6 тепло 1012.2 991.1
18 19.02 З 10 24 км 3/0
[Ac trans Ci fib]
+11.1 +1.1 50 +7 +8 тепло 1012.6 991.5 +2.1 +11.5
21 19.02 З 9 24 км 1/1 1000 м
[]
+10.2 +0.6 51 +7 +7 тепло 1014.5 993.4
00 20.02 С 4 24 км ясно +6.0 -0.7 62 +3 +3 тепло 1018.5 997.2 +2.1 +11.5
03 20.02 СЗ 4 24 км ясно +3.2 -1.9 69 -1 -1 тепло 1020.8 999.5
06 20.02 С 6 24 км 1/0
[Ci fib]
+2.2 -2.0 74 -3 -3 тепло 1022.0 1000.7 +1.6 +11.5 201
09 20.02 С 5 24 км ясно +1.0 -1.9 81 -5 -5 тепло 1024.0 1002.6
12 20.02 С 4 24 км ясно -0.4 -3.3 81 -6 -6 тепло 1026.7 1005.2 -0.6 +11.5
15 20.02 СВ 3 24 км 1/0
[]
+2.0 -4.8 61 -1 +3 тепло 1029.0 1007.4
18 20.02 ЮВ 3 24 км 1/0
[Ci fib]
+4.5 -3.5 56 +1 +7 тепло 1027.8 1006.3 -0.6 +5.1
21 20.02 ЮВ 4 24 км 5/0
[]
+3.2 -3.8 60 -1 0 тепло 1028.4 1006.8
00 21.02 В 2 24 км 4/0
[Ac trans Ci fib]
+0.4 -4.6 69 -3 -3 тепло 1028.5 1006.8 -0.6 +5.1
03 21.02 В 4 24 км 6/0
[]
+0.9 -6.5 58 -4 -4 тепло 1027.2 1005.6
06 21.02 ЮВ 6 24 км 8/0
[Ci sp]
+0.8 -7.5 54 -5 -5 тепло 1024.6 1003.1 -0.6 +5.1 6
09 21.02 В 4 24 км 10/0
[]
+0.9 -6.9 56 -3 -3 тепло 1021.9 1000.4
12 21.02 В 3 24 км 10/0
[Ac As Cs]
+1.2 -4.1 68 -2 -2 тепло 1019.4 997.9 -0.1 +5.1
15 21.02 ЮВ 2 24 км 10/0
[]
+3.5 -3.1 62 +2 +4 тепло 1017.3 995.9
18 21.02 ЮВ 2 24 км 10/0
[Ac cast]
+4.9 -1.3 64 +3 +6 тепло 1015.3 994.0 -0.1 +5.0

 

Местоположение метеостанции Toronto (Канада): широта 43.67 долгота -79.63 высота над уровнем моря 173 м.

В архиве по умолчанию представлена погода в Toronto за последнюю неделю. Архивные данные за месяц целиком и за предыдущие месяцы, начиная с января 2011 года, Вы можете получить, выбрав интересующий диапазон дат из раскрывающегося списка и нажав кнопку "Ввод!".

Внимание! Время в таблицах - всемирное. Для получения местного времени необходимо прибавить поправку, которая в Toronto равна -5 ч.

Смотрите также архив погоды в соседних городах и на ближайших метеорологических станциях:

Погода в Toronto Aes Hq (Канада) (18 км)
Погода в Toronto City (Канада) (19 км)
Погода в Toronto Island Arpt (Канада) (19 км)
Погода в Toronto Buttonville (Канада) (31 км)
Погода в Buttonville (Канада) (31 км)
Погода в Burlington Piers (Канада) (43 км)
Погода в Hamilton Rbg Cs (Канада) (49 км)
Погода в Guelph Turfgrass (Канада) (49 км)
Погода в Vineland Station Rc (Канада) (58 км)
Погода в Port Weller (Канада) (58 км)

Пояснения к столбцам:

Ветер - указаны скорость ветра в м/с - средняя за 10 мин, порывы в срок и между сроками (в фигурных скобках) и направление, откуда дует ветер: С - северный, СВ - северо-восточный, В - восточный, ЮВ - юго-восточный, Ю - южный, ЮЗ - юго-западный, З - западный, СЗ - северо-западный.
Видимость - горизонтальная дальность видимости в метрах или километрах. При видимости от 1 до 10 км при отсутствии осадков обычно наблюдается дымка, при ухудшении видимости до 1 км и менее - туман. В сухую погоду видимость может ухудшаться дымом, пылью или мглою.
Явления - указаны атмосферные явления, наблюдавшиеся в срок или в последний час перед сроком; фигурными скобками обозначены явления, наблюдавшиеся между сроками (за 1-3 часа до срока); квадратными скобками обозначены град или гололедные отложения с указанием их диаметра в мм.
Облачность - указаны через наклонную черту общая и нижняя облачность в баллах и высота нижней границы облаков в метрах; квадратными скобками обозначены формы облаков: Ci - перистые, Cs - перисто-слоистые, Cc - перисто-кучевые, Ac - высококучевые, As - высокослоистые, Sc - слоисто-кучевые, Ns - слоисто-дождевые, Cu - кучевые, Cb - кучево-дождевые. Подробнее классификацию облаков см. в Атласе облаков (PDF).
T - Температура воздуха - температура, измеренная на высоте 2 м над землей.
Td - Температура точки росы - температура, при понижении до которой содержащийся в воздухе водяной пар достигнет насыщения.
f - Относительная влажность воздуха - влажноcть воздуха, измеренная на высоте 2 м над землей.
Te - Эффективная температура - температура, которую ощущает одетый по сезону человек в тени. Характеристика душности погоды. При расчете учитывается влияние влажности воздуха и скорости ветра на теплоощущения человека.
Tes - Эффективная температура на солнце - температура, которую ощущает человек, с поправкой на солнечный нагрев. Характеристика знойности погоды. Зависит от высоты солнца над горизонтом, облачности и скорости ветра. Ночью, в пасмурную погоду, а также при ветре 12 м/с и более поправка равна нулю.
P - Атмосферное давление - приведенное к уровню моря атмосферное давление.
Po - Атмосферное давление - измеренное на уровне метеостанции атмосферное давление.
Tmin - Минимальная температура - минимум температуры воздуха на высоте 2 м над землей.
Tmax - Максимальная температура - максимум температуры воздуха на высоте 2 м над землей.
R - Количество осадков - Количество выпавших осадков, мм. При наведении курсора мыши на число - период времени, за который выпало указанное количество осадков.
S - Снежный покров - Высота снежного покрова, см. При наведении курсора мыши на число - состояние снежного покрова и степень покрытия местности в баллах.